Weather History for Richmond Hanover County, VA

Change the Weather History Date:

Sunday, August 14, 2011

  Actual Average Record
Temperature  
Mean Temperature 76 °F -  
Max Temperature 87 °F 85 °F 99 °F (2002)
Min Temperature 66 °F 64 °F 49 °F (1950)
Cooling Degree Days 11    
Growing Degree Days 26 (Base 50)    
Moisture  
Dew Point 70 °F    
Average Humidity 86    
Maximum Humidity 96    
Minimum Humidity 57    
Precipitation  
Precipitation 0.36 in - - ()
Sea Level Pressure  
Sea Level Pressure 29.83 in    
Wind  
Wind Speed 5 mph (South)    
Max Wind Speed 13 mph    
Max Gust Speed 22 mph    
Visibility 7 miles    
Events Rain , Thunderstorm    
Averages and records for this station are not official NWS values.
T = Trace of Precipitation, MM = Missing Value Source: NWS Daily Summary

Daily Weather History Graph

Daily Weather History Graph

Search for Another Location

Airport:

Trip Planner

Search our weather history database for the weather conditions in past years. The results will help you decide how hot, cold, wet, or windy it might be!

Date:

Astronomy

Aug. 14, 2011 Rise Set
Actual Time 6:24 AM EDT 8:04 PM EDT
Civil Twilight 5:56 AM EDT 8:31 PM EDT
Nautical Twilight 5:22 AM EDT 9:05 PM EDT
Astronomical Twilight 4:46 AM EDT 9:41 PM EDT
Moon 8:16 PM EDT (8/14) 7:14 AM EDT (8/14)
Length of Visible Light 14h 35m
Length of Day
13h 39m
Full, 99% of the Moon is Illuminated
Aug 14
Full
Aug 21
Last Quarter
Aug 28
New
Sep 4
First Quarter
Sep 12
Full

Hourly Weather History & Observations

Time (EDT) Temp. Heat Index Dew Point Humidity Pressure Visibility Wind Dir Wind Speed Gust Speed Precip Events Conditions
12:54 AM 73.0 °F - 70.0 °F 90% 29.95 in 9.0 mi SSE 3.5 mph - N/A   Overcast
2:54 AM 72.0 °F - 70.0 °F 93% 29.89 in 8.0 mi South 3.5 mph - N/A   Scattered Clouds
4:54 AM 73.0 °F - 70.0 °F 90% 29.87 in 9.0 mi South 6.9 mph - N/A   Scattered Clouds
5:33 AM 73.4 °F - 69.8 °F 88% 29.88 in 10.0 mi SW 4.6 mph - N/A   Overcast
5:40 AM 73.4 °F - 69.8 °F 88% 29.88 in 2.5 mi WSW 10.4 mph - 0.10 in Rain Heavy Rain
5:44 AM 71.6 °F - 69.8 °F 94% 29.88 in 1.2 mi SW 10.4 mph 16.1 mph 0.27 in Rain Heavy Rain
5:50 AM 71.6 °F - 69.8 °F 94% 29.88 in 0.8 mi SSW 9.2 mph - 0.58 in Rain , Thunderstorm Heavy Thunderstorms and Rain
6:00 AM 71.6 °F - 69.8 °F 94% 29.87 in 1.5 mi SSE 5.8 mph - 0.01 in Rain , Thunderstorm Thunderstorms and Rain
6:03 AM 71.6 °F - 68.0 °F 88% 29.87 in 4.0 mi SE 3.5 mph - 0.01 in Rain , Thunderstorm Light Thunderstorms and Rain
6:11 AM 71.6 °F - 69.8 °F 94% 29.87 in 9.0 mi SSE 3.5 mph - 0.01 in Rain Light Rain
6:21 AM 71.6 °F - 69.8 °F 94% 29.87 in 10.0 mi SSE 4.6 mph - 0.01 in   Mostly Cloudy
6:30 AM 71.6 °F - 69.8 °F 94% 29.88 in 1.5 mi Calm Calm - 0.12 in Rain Heavy Rain
6:40 AM 71.6 °F - 69.8 °F 94% 29.87 in 3.0 mi SE 3.5 mph - 0.15 in Rain Light Rain
6:54 AM 71.1 °F - 70.0 °F 96% 29.87 in 10.0 mi Calm Calm - 0.15 in   Overcast
7:23 AM 71.6 °F - 69.8 °F 94% 29.87 in 8.0 mi Calm Calm - 0.01 in Rain Light Rain
8:30 AM 73.4 °F - 71.6 °F 94% 29.86 in 6.0 mi SSE 3.5 mph - N/A   Overcast
8:54 AM 73.0 °F - 71.1 °F 93% 29.85 in 5.0 mi Calm Calm - 0.00 in Rain , Thunderstorm Light Rain
8:57 AM 73.4 °F - 71.6 °F 94% 29.85 in 5.0 mi Calm Calm - 0.01 in Rain Light Rain
9:04 AM 73.4 °F - 71.6 °F 94% 29.85 in 5.0 mi Calm Calm - 0.01 in Rain Light Rain
9:54 AM 75.0 °F - 72.0 °F 90% 29.83 in 7.0 mi South 6.9 mph - 0.01 in   Overcast
10:39 AM 75.2 °F - 71.6 °F 89% 29.84 in 10.0 mi South 12.7 mph 17.3 mph N/A   Mostly Cloudy
10:52 AM 75.2 °F - 71.6 °F 89% 29.84 in 10.0 mi South 8.1 mph - N/A   Overcast
10:54 AM 75.9 °F - 72.0 °F 87% 29.83 in 10.0 mi SSW 6.9 mph - N/A   Overcast
11:30 AM 78.8 °F - 71.6 °F 78% 29.84 in 10.0 mi SSW 8.1 mph - N/A   Overcast
11:54 AM 77.0 °F - 72.0 °F 84% 29.82 in 5.0 mi Variable 5.8 mph - 0.02 in Rain Light Rain
12:10 PM 77.0 °F - 73.4 °F 89% 29.82 in 4.0 mi South 5.8 mph - 0.01 in Rain Light Rain
12:21 PM 77.0 °F - 73.4 °F 89% 29.82 in 10.0 mi SSW 4.6 mph - 0.02 in Rain Light Rain
12:54 PM 80.1 °F 84.2 °F 73.0 °F 79% 29.80 in 10.0 mi South 8.1 mph - 0.02 in   Partly Cloudy
1:54 PM 82.0 °F 86.3 °F 71.1 °F 69% 29.78 in 10.0 mi South 12.7 mph - N/A   Mostly Cloudy
2:08 PM 82.4 °F 86.3 °F 69.8 °F 66% 29.78 in 10.0 mi SSW 8.1 mph - N/A   Mostly Cloudy
2:54 PM 84.0 °F 87.8 °F 69.1 °F 61% 29.76 in 10.0 mi South 6.9 mph - N/A   Partly Cloudy
3:54 PM 86.0 °F 90.1 °F 69.1 °F 57% 29.73 in 10.0 mi South 8.1 mph - N/A   Partly Cloudy
5:54 PM 84.0 °F 88.4 °F 70.0 °F 63% 29.69 in 10.0 mi Calm Calm - N/A   Partly Cloudy
6:54 PM 79.0 °F - 73.0 °F 82% 29.69 in 10.0 mi Calm Calm - N/A   Mostly Cloudy
7:54 PM 75.9 °F - 73.0 °F 91% 29.71 in 8.0 mi Calm Calm - N/A Thunderstorm Partly Cloudy
8:54 PM 75.0 °F - 66.0 °F 73% 29.75 in 10.0 mi North 10.4 mph 21.9 mph N/A Thunderstorm Overcast
9:54 PM 66.9 °F - 64.9 °F 93% 29.78 in 8.0 mi Calm Calm - 0.09 in Rain Light Rain
10:54 PM 68.0 °F - 64.0 °F 87% 29.75 in 10.0 mi Calm Calm - 0.00 in   Overcast
11:54 PM 66.9 °F - 64.9 °F 93% 29.76 in 5.0 mi Calm Calm - 0.07 in Rain Rain